Theta_e
303 296 294 293 296 298 300 301 300 301 300 299 298 297 297 296 297 300 300 302 304 301 301 305 306 307 310 313 315 317 319 319 319 321 320 321 326 328 329 330 332 333 333 335 336 337 337 338 339 340 340 339 337 338 339 340 340 340 340 339 339 340 339 339 339 339 339 338 339 339 338 338 341 342 343 345 347 347 345 345 345 344 342 341 341 339
301 295 295 297 299 301 301 302 303 300 300 298 297 297 296 297 296 299 299 302 304 303 304 307 306 307 311 313 315 317 317 316 317 320 321 322 325 326 327 329 331 331 334 335 333 334 334 335 337 336 336 337 336 336 337 340 342 339 340 340 338 339 340 341 340 339 338 338 339 338 337 339 339 341 341 341 345 345 345 345 344 344 343 337 338 340
295 293 297 298 301 302 302 302 303 300 298 298 297 297 296 297 299 300 300 302 303 303 302 305 304 307 311 313 315 316 316 318 319 319 320 323 323 324 325 327 328 328 328 329 330 331 332 332 333 334 335 336 336 335 336 338 339 340 340 341 340 339 338 339 340 340 339 341 342 341 340 339 338 341 341 341 342 346 346 347 345 343 343 340 338 339
292 295 299 301 301 302 301 301 301 300 300 298 297 296 294 298 296 293 300 301 302 303 303 305 304 307 311 314 315 316 317 318 319 318 318 320 320 321 323 324 325 326 325 325 326 327 329 330 331 331 331 333 335 335 336 337 338 338 338 339 340 339 340 339 339 339 342 342 342 343 342 341 340 339 342 343 343 343 344 343 342 342 343 341 340 338
294 298 302 302 302 301 299 299 299 298 296 299 298 297 296 296 297 298 298 301 303 306 307 305 303 304 309 308 311 315 317 317 318 318 319 320 322 323 324 324 324 322 322 322 323 324 325 326 327 328 331 334 334 335 335 336 336 336 336 337 338 337 338 338 338 338 339 339 339 340 339 339 340 340 340 339 338 339 341 341 341 340 339 339 341 339
296 300 303 301 300 299 299 297 298 298 295 297 299 298 298 298 297 299 300 300 299 300 305 302 294 296 306 307 309 313 314 313 315 316 317 319 321 322 320 320 321 321 321 320 321 322 323 324 324 325 328 329 330 331 333 335 335 335 335 336 337 336 337 337 337 338 338 337 336 336 333 331 333 333 335 333 332 334 339 339 341 340 340 340 339 339
297 301 301 299 298 298 298 297 299 299 296 295 296 300 299 299 299 299 298 298 294 293 301 306 294 291 304 305 308 311 310 310 314 315 315 315 316 317 316 316 316 317 317 318 319 320 320 322 322 323 325 327 328 330 333 334 334 334 335 335 336 337 336 336 336 338 337 337 336 336 335 335 334 333 337 338 340 335 338 341 341 342 340 339 339 338
299 300 299 299 298 297 297 295 299 299 296 294 300 300 299 298 297 298 298 298 297 302 303 302 299 294 295 303 308 309 309 310 311 312 312 312 312 313 314 313 314 314 315 315 315 316 317 318 319 319 321 323 324 327 331 332 333 334 334 335 335 336 336 337 337 337 336 335 336 335 335 336 335 335 336 338 340 343 339 339 336 338 338 336 338 338
300 297 298 297 298 296 295 298 300 300 297 297 300 300 298 298 298 298 298 297 298 297 294 297 299 294 294 303 308 308 305 307 307 309 310 310 310 310 311 311 311 312 313 314 313 314 314 316 317 318 318 320 322 324 326 329 331 332 334 335 336 335 336 337 337 336 336 336 336 335 335 335 337 337 336 337 339 341 342 339 339 338 339 339 339 338
300 300 299 300 298 295 299 300 301 300 297 299 300 300 300 299 299 298 297 296 297 294 290 294 298 293 293 301 303 308 306 306 307 308 309 309 309 308 309 310 311 311 312 312 312 312 313 314 316 317 319 319 320 322 323 325 327 328 332 334 334 334 335 335 336 337 336 337 337 338 336 335 336 339 338 338 338 339 339 338 339 340 339 338 336 336
301 305 304 301 298 300 300 302 302 301 301 301 300 297 296 297 297 298 298 297 296 288 292 296 298 296 290 299 302 303 305 308 308 308 308 308 308 307 307 308 308 309 310 311 311 312 313 314 315 317 317 317 319 320 322 323 325 326 327 329 330 332 334 336 336 337 336 337 337 337 337 337 337 338 338 336 336 337 339 338 337 336 338 338 335 336
300 301 301 302 304 303 303 300 302 303 302 300 298 296 294 293 296 296 295 297 288 287 294 298 297 298 289 295 304 308 310 310 309 306 306 305 305 305 306 307 307 308 310 311 311 311 312 313 314 315 315 316 318 319 320 322 324 325 326 326 326 327 330 333 334 335 335 337 337 338 339 339 338 338 336 336 336 336 337 338 335 336 337 336 335 336
296 297 300 301 305 303 300 298 298 300 300 299 297 296 290 286 287 284 290 285 286 287 295 298 298 294 295 301 306 308 309 309 309 307 305 305 305 305 305 306 307 308 309 310 309 309 309 310 311 312 314 315 316 317 319 320 322 324 325 325 324 325 327 329 330 331 332 332 334 335 336 339 339 338 338 336 336 338 338 339 338 336 335 335 335 336
294 298 299 300 301 303 301 294 294 294 297 296 295 293 289 285 282 280 285 288 289 294 296 297 298 293 301 303 308 307 309 309 308 307 306 305 304 305 305 306 307 307 308 308 309 308 307 308 309 310 312 313 314 316 317 318 320 322 323 323 323 324 326 327 327 327 327 329 331 333 335 337 337 338 337 337 337 338 338 339 338 337 336 335 335 335
286 288 294 297 294 302 300 299 298 296 296 296 298 295 292 291 286 281 285 282 285 289 294 298 295 293 294 297 308 307 309 310 310 308 307 306 305 305 306 307 307 307 307 308 307 307 307 308 309 309 310 312 313 315 316 317 318 319 320 320 321 322 324 324 324 325 326 326 329 331 333 334 336 336 336 337 338 338 337 338 337 336 337 335 336 335
290 291 297 300 300 301 299 301 302 299 297 298 298 298 293 291 296 288 289 290 289 290 289 293 293 300 297 307 308 309 309 309 309 308 307 305 306 306 305 305 305 305 306 306 306 306 308 309 310 310 310 311 313 314 315 315 315 316 317 319 320 321 322 323 323 324 325 325 327 329 331 332 333 334 335 336 337 337 337 337 338 338 339 339 339 338
292 291 298 298 301 300 300 302 301 302 289 295 296 291 293 299 296 290 289 295 291 290 287 296 297 300 305 306 306 307 307 306 306 306 305 305 305 305 303 303 304 304 305 305 306 306 307 309 310 310 311 312 312 313 313 313 315 316 316 317 318 320 321 321 322 323 324 325 326 327 328 330 331 332 332 333 335 337 337 338 338 338 339 341 341 339
290 291 298 297 295 300 302 302 303 302 301 297 291 295 300 302 300 293 286 287 288 285 287 294 293 296 295 290 305 305 304 304 304 304 303 303 304 303 302 301 302 303 304 305 305 306 307 308 308 308 309 311 311 312 313 313 315 316 317 317 317 318 318 320 320 321 322 323 324 326 327 327 328 330 331 332 333 335 336 337 337 337 338 339 340 338
298 289 294 297 297 299 302 302 299 302 303 298 295 301 293 288 288 294 290 282 283 283 287 292 293 296 297 297 302 301 301 302 304 305 303 302 302 301 301 301 302 303 304 304 305 306 307 308 308 308 308 310 312 313 313 313 315 316 316 317 317 316 317 319 320 320 321 323 323 324 325 325 326 327 329 331 332 334 334 335 336 337 338 338 336 336
299 290 291 298 297 299 299 298 290 295 300 302 302 298 299 297 292 288 290 293 291 285 285 287 292 289 300 302 304 302 303 304 304 302 300 301 301 301 302 302 303 304 304 304 304 305 306 307 308 307 308 309 310 311 312 313 314 315 315 315 316 317 318 319 319 320 320 321 322 322 323 325 326 327 329 330 331 332 333 333 335 336 336 338 335 333
293 299 287 294 299 298 292 296 294 295 293 294 295 295 296 298 300 297 296 292 289 287 287 286 285 292 301 307 305 305 305 306 305 301 301 301 300 300 301 301 302 302 302 303 303 304 305 305 305 305 308 309 311 312 312 313 314 315 314 315 315 315 316 317 318 319 318 319 320 321 322 323 325 327 329 329 330 332 333 335 335 334 335 334 332 331
293 293 289 293 293 292 294 299 303 298 298 296 295 293 295 293 292 289 286 296 295 291 286 287 285 295 302 307 308 306 307 307 305 302 301 300 299 299 299 300 301 301 302 302 303 303 304 304 304 306 308 309 310 311 312 312 312 312 313 314 315 317 315 315 316 317 317 319 319 320 321 323 326 327 328 329 330 330 331 332 334 333 331 331 332 333
302 298 295 289 292 293 300 301 304 303 302 300 298 294 296 297 296 292 285 289 294 294 295 294 288 290 302 305 304 303 303 304 304 303 300 300 300 300 300 301 301 301 301 302 302 303 304 305 305 306 307 308 309 310 311 310 310 310 311 312 312 313 314 315 315 316 317 317 318 318 320 321 323 324 326 327 329 329 329 331 333 333 333 334 331 332
306 295 292 293 298 299 301 303 303 303 302 298 300 301 297 294 296 294 293 296 291 293 290 290 287 291 298 301 301 301 301 301 302 302 300 299 299 299 300 300 300 300 301 302 302 303 303 305 306 306 306 307 307 308 309 309 310 310 310 311 311 312 314 315 314 314 314 315 316 318 318 319 320 321 323 324 326 328 330 330 331 331 331 331 332 332
292 299 296 290 289 292 295 297 297 301 300 297 297 301 301 301 299 300 300 299 291 293 292 289 284 291 293 299 298 298 298 297 298 299 299 297 297 297 298 298 299 300 301 301 302 302 303 303 303 304 305 306 306 307 308 308 308 309 309 311 311 313 314 313 313 312 313 314 314 316 316 316 317 317 318 320 322 325 328 330 331 331 330 331 331 331
297 297 297 287 283 282 281 283 286 290 294 301 301 299 300 299 299 297 291 293 288 294 294 291 290 292 294 297 296 296 295 294 296 297 297 298 298 298 297 296 297 298 299 300 301 302 301 302 302 303 304 305 305 305 306 307 308 309 309 310 312 312 312 312 312 311 312 312 312 313 314 314 315 316 317 318 319 321 324 326 329 329 330 330 330 331
299 301 298 296 290 288 291 295 299 300 299 294 297 299 299 300 301 303 298 292 289 294 291 296 297 290 290 293 294 294 294 293 293 295 295 295 297 298 297 297 297 298 298 298 299 301 302 302 302 303 304 304 305 306 307 307 307 308 309 310 311 311 311 311 312 311 311 311 311 311 312 313 314 314 315 317 319 321 323 325 328 329 328 329 330 330
301 294 296 297 295 294 296 297 299 300 298 299 297 298 298 299 301 301 293 292 299 294 288 299 297 292 291 293 294 293 293 293 294 294 295 295 296 297 296 296 296 298 299 298 299 301 302 303 303 303 303 304 305 306 306 307 307 308 309 309 310 311 311 311 311 311 311 310 310 311 311 312 313 314 315 316 318 320 323 325 326 327 328 328 328 328
299 291 295 297 294 296 298 298 300 299 298 298 299 299 298 300 300 299 299 299 301 291 289 298 299 295 292 294 294 293 293 292 292 293 294 295 296 296 296 295 295 295 296 297 298 300 301 302 301 303 303 304 305 305 305 306 306 308 309 309 310 311 311 312 312 311 311 310 310 310 311 312 313 314 315 316 317 318 319 321 324 327 328 328 329 329
300 294 297 298 295 296 297 298 299 297 297 297 297 297 299 301 301 301 300 302 302 301 301 299 296 293 293 292 292 291 293 293 293 294 295 295 295 295 295 295 295 295 295 295 297 299 301 302 303 302 303 303 304 304 304 305 305 306 307 307 308 309 310 311 311 310 310 309 310 311 312 312 313 313 314 315 315 316 317 317 318 320 320 321 324 327
301 291 296 297 294 293 296 296 297 297 297 294 295 297 298 298 298 299 299 299 299 298 297 293 289 286 290 292 291 292 293 293 293 292 292 293 293 293 293 293 293 294 294 296 297 299 301 301 302 304 302 303 303 303 303 304 305 306 306 306 307 308 310 310 310 311 310 309 310 311 312 311 311 312 312 313 314 315 314 315 316 316 315 316 318 321
302 293 299 298 291 290 294 295 295 296 296 293 292 293 294 295 292 293 293 297 297 292 293 292 288 285 288 292 292 292 292 292 291 291 291 292 292 293 292 292 293 293 294 295 297 298 299 301 302 301 302 303 304 303 303 303 304 305 305 306 306 307 309 310 310 310 310 310 310 311 311 310 311 311 311 311 311 312 313 313 313 313 314 315 316 317
299 295 292 294 290 287 294 296 296 296 295 290 287 289 293 294 293 294 296 298 298 297 293 291 290 289 290 292 290 290 290 290 290 290 290 291 292 292 292 293 293 294 294 296 297 298 299 300 301 301 301 302 303 303 304 304 304 304 305 305 306 308 308 309 309 309 309 309 309 309 310 310 310 310 310 310 311 311 311 310 310 310 310 311 312 313
300 298 294 298 289 288 293 294 295 291 285 286 291 294 294 294 295 292 291 294 297 300 295 295 291 291 291 291 290 289 289 289 290 291 293 292 292 293 293 294 294 295 296 296 297 298 298 299 300 301 302 302 303 304 305 305 304 305 306 306 306 306 307 307 307 308 308 308 308 309 309 309 309 309 309 310 310 310 309 308 307 307 308 309 310 310
299 298 296 299 291 289 292 294 288 284 285 288 295 297 298 298 296 293 292 294 294 294 293 291 290 290 291 291 290 290 290 291 292 292 292 293 294 294 293 293 294 295 295 296 296 298 299 299 300 301 302 302 303 305 305 305 306 306 306 306 305 305 305 306 306 307 307 307 308 308 308 308 308 308 308 309 309 309 308 307 307 306 306 306 306 307
295 296 296 294 295 293 290 290 282 283 288 293 294 296 299 299 297 295 290 291 294 293 293 290 290 289 289 289 290 291 290 291 291 292 293 294 294 294 293 293 294 295 295 296 297 297 298 299 300 300 301 302 303 303 303 303 305 305 305 307 307 307 308 307 306 306 306 306 307 307 307 307 307 307 308 308 308 307 307 307 306 305 305 305 305 305
302 300 297 292 295 287 289 287 284 286 288 289 290 291 295 293 296 294 286 286 292 295 294 290 289 289 289 290 290 290 291 291 289 289 293 293 294 295 294 294 295 296 297 297 298 299 300 300 300 300 301 302 302 302 302 303 304 304 304 305 305 305 305 305 305 305 306 306 306 306 306 306 306 306 306 307 306 306 306 305 305 305 304 303 303 302
305 296 298 292 288 294 288 285 284 284 283 286 292 298 299 300 300 299 292 286 292 293 294 291 289 289 289 290 290 291 292 289 285 286 291 293 295 295 296 297 297 297 298 299 299 300 300 300 301 301 302 302 302 302 303 304 304 304 303 303 304 304 303 303 303 304 305 305 306 306 306 306 306 305 305 305 305 305 306 306 305 304 304 303 301 300
303 303 301 295 290 291 289 286 285 284 285 292 294 298 300 301 301 301 295 286 291 292 293 292 290 290 290 289 290 291 291 287 284 286 291 293 294 295 294 295 296 297 298 298 299 299 299 300 301 301 302 302 301 302 303 303 303 303 303 303 303 303 302 302 303 303 304 305 306 306 306 306 305 305 305 305 305 305 304 304 303 303 304 304 304 303
299 296 296 293 290 291 290 288 286 287 284 292 296 298 300 302 301 298 286 285 291 293 293 292 291 291 291 291 292 292 293 287 285 288 293 294 295 295 295 295 296 297 297 298 299 299 300 300 300 300 300 300 301 303 303 303 302 302 301 302 302 301 301 302 303 304 305 305 306 306 306 306 305 305 305 304 304 304 304 304 303 302 303 303 303 303
291 292 294 290 291 289 288 288 288 285 290 296 297 300 300 302 299 287 284 289 293 294 295 294 293 293 293 292 293 289 291 294 292 292 294 295 295 295 296 297 297 298 297 298 298 298 299 300 300 300 300 301 302 303 303 303 302 301 301 301 301 301 302 303 303 303 304 305 305 305 305 305 305 305 305 305 305 305 305 304 302 302 301 301 301 302
290 291 291 293 290 290 290 288 287 288 292 297 299 300 302 296 286 286 292 298 297 295 295 295 294 294 294 293 292 291 291 292 293 294 294 294 294 295 296 297 298 298 299 299 299 299 300 300 301 301 301 302 302 302 302 302 301 301 301 300 300 301 303 303 303 303 304 304 304 304 304 305 305 305 305 305 305 305 305 305 304 303 302 301 300 300
290 289 289 288 288 290 290 287 285 282 289 299 299 298 299 290 291 295 297 298 298 295 295 295 295 294 293 291 292 292 292 293 293 294 294 294 295 295 296 297 297 297 297 298 298 299 299 299 299 300 300 301 302 302 302 302 300 301 301 300 301 302 303 303 303 303 303 303 303 303 302 302 302 303 304 304 305 304 304 304 304 304 303 301 300 299
293 289 289 289 292 287 287 285 284 290 295 300 299 291 296 298 299 300 299 295 296 296 295 295 295 294 293 292 292 292 293 293 293 294 294 295 296 296 296 297 297 298 298 298 298 299 299 299 299 299 300 301 301 302 302 301 300 300 300 300 302 303 303 303 303 303 302 302 302 303 303 302 301 301 302 302 303 303 303 303 303 303 302 301 300 299
294 291 294 289 291 288 288 288 289 294 297 298 299 299 300 301 302 301 300 298 297 296 299 296 295 295 295 294 293 292 292 293 293 295 295 294 295 296 296 296 297 298 298 298 298 299 299 298 299 299 299 300 301 301 302 302 300 300 300 301 302 302 302 303 303 302 302 302 302 302 302 303 302 302 302 303 303 303 302 302 302 301 301 301 300 298
296 297 297 292 286 291 292 293 294 294 295 296 299 300 300 300 301 301 299 298 298 299 299 296 296 295 295 295 293 293 294 294 295 295 296 296 296 296 297 297 297 299 299 299 299 299 298 299 299 299 299 299 300 300 301 301 301 300 301 302 302 302 302 302 302 302 301 302 302 302 302 302 302 302 302 302 302 302 301 301 300 299 299 300 299 298
294 295 296 291 292 291 283 292 291 291 293 295 296 298 300 300 300 300 299 298 298 298 297 297 296 296 296 296 295 294 294 295 295 295 296 296 296 296 296 297 298 298 298 298 299 299 299 299 298 298 298 298 300 300 300 301 301 301 302 302 302 303 302 302 302 301 301 302 301 302 302 302 301 301 301 301 300 301 301 300 300 299 297 297 297 297
291 299 294 293 291 289 285 288 291 293 294 295 296 295 296 297 299 300 299 299 299 299 298 297 297 296 297 295 296 295 295 296 296 296 296 296 296 296 296 296 297 297 298 299 299 299 299 298 298 298 298 298 299 300 300 300 300 300 302 302 302 302 302 302 301 301 301 301 301 301 301 301 294 298 301 300 299 298 299 299 300 298 296 295 295 295
296 298 289 293 287 286 289 290 291 292 292 293 296 297 297 297 297 298 299 299 299 298 297 297 298 298 298 297 297 297 296 296 296 296 296 296 296 296 296 297 297 297 298 297 298 298 298 298 298 298 298 298 299 300 300 300 300 300 302 302 302 302 301 300 299 301 301 301 301 301 301 301 301 300 300 300 300 300 299 298 299 299 298 297 295 294
295 292 294 290 285 285 285 287 292 287 285 290 293 295 296 298 299 298 299 298 297 296 296 296 297 298 298 298 297 296 295 295 295 295 294 294 295 296 296 296 297 296 296 297 298 298 299 299 299 298 298 299 299 299 300 300 300 301 300 301 301 301 300 300 300 300 300 301 301 301 301 301 301 301 300 300 300 300 297 288 290 294 298 297 291 288
294 294 294 290 289 288 293 293 297 297 294 293 294 296 298 299 299 298 297 297 297 298 298 297 296 296 296 296 296 295 295 295 295 295 294 294 294 295 296 296 295 295 295 296 296 297 298 298 299 299 298 299 299 299 299 299 300 300 300 300 301 301 300 300 299 299 300 300 300 299 301 301 301 301 301 301 300 300 299 299 295 288 288 289 289 289
Wind_Speed
11 11 12 14 12 15 15 15 13 6 6 8 12 11 9 10 12 8 8 7 4 13 6 8 11 8 9 8 8 7 7 9 8 7 4 4 5 7 7 7 5 6 9 5 6 7 6 4 4 4 5 5 6 3 2 3 5 6 6 6 2 2 4 5 6 5 5 6 6 7 8 8 8 8 8 7 7 7 6 6 6 6 6 7 6 7
12 12 14 15 14 15 16 15 12 5 9 9 10 11 10 11 10 11 10 6 3 6 7 8 10 8 8 8 8 7 8 11 9 7 7 6 6 6 7 7 8 6 6 10 8 8 7 5 5 5 4 4 5 5 2 2 1 2 4 4 4 4 7 8 7 7 8 8 8 8 7 7 7 7 7 8 7 7 6 6 5 5 2 2 6 8
12 14 13 15 14 13 13 14 10 9 9 10 9 10 9 10 11 9 8 5 6 5 9 10 9 8 8 8 8 9 10 9 9 9 8 8 8 8 9 10 10 10 9 10 10 10 9 8 6 5 4 4 5 5 4 3 3 3 1 1 3 3 4 5 6 6 7 8 7 7 7 7 6 7 7 8 6 4 5 5 6 5 3 5 4 6
11 13 13 14 12 12 12 13 13 12 9 9 10 11 11 10 12 10 7 7 5 5 10 11 9 7 7 8 10 9 9 10 11 12 10 8 8 10 10 9 9 11 12 13 13 11 9 8 7 5 5 4 2 4 4 4 5 5 6 6 4 0 2 2 4 5 5 5 5 5 6 7 8 7 5 6 7 6 6 7 6 5 5 5 5 4
10 8 14 13 13 15 14 14 14 12 11 11 11 10 11 13 12 10 10 8 7 7 12 12 9 7 4 7 8 9 9 10 11 12 11 10 11 11 12 14 13 13 13 13 13 13 12 12 10 8 6 4 5 5 6 6 8 6 8 8 8 5 4 1 1 4 3 3 5 4 4 5 7 7 6 4 6 8 7 7 6 6 6 6 5 3
12 9 12 15 16 16 16 15 16 14 12 11 12 12 8 12 9 10 15 13 9 8 11 15 9 8 6 6 6 8 8 10 9 12 13 12 13 14 13 13 13 14 13 14 13 13 12 11 10 10 10 9 8 8 8 8 7 7 7 7 6 4 3 1 2 4 4 4 5 5 5 5 6 6 4 5 6 7 7 8 5 5 5 4 5 6
10 11 14 15 16 17 17 15 17 16 12 11 12 10 6 11 12 12 13 13 10 10 13 9 10 7 7 6 6 8 10 11 10 12 11 11 12 12 12 11 11 11 11 13 13 13 13 12 12 12 11 11 10 9 8 8 8 8 7 7 7 6 3 2 1 3 3 4 5 5 5 5 6 5 4 4 3 3 6 5 4 3 4 5 6 7
10 14 15 16 17 16 15 15 16 18 12 10 11 15 7 7 10 11 12 12 5 6 11 10 8 6 9 7 6 9 11 11 10 10 10 10 11 12 12 12 12 12 11 11 12 12 12 12 11 11 11 11 11 11 10 10 9 9 9 8 7 6 5 4 3 1 1 5 4 5 5 6 6 4 4 4 4 4 3 3 1 1 6 7 7 7
13 14 16 18 17 14 15 14 13 17 12 5 10 13 11 9 10 11 10 10 8 8 10 11 12 8 9 9 8 11 12 10 9 9 9 10 10 11 12 11 11 12 12 12 11 12 13 12 12 11 11 11 12 11 11 11 11 11 10 9 8 7 5 5 4 2 2 3 4 4 4 5 4 4 3 4 5 4 3 3 3 4 5 7 8 9
11 15 17 17 15 14 13 14 13 17 15 7 7 8 7 5 7 9 9 10 7 8 10 13 13 10 9 10 8 10 10 10 9 8 7 9 11 10 10 11 11 10 10 11 12 11 11 11 11 11 11 13 12 10 11 11 10 10 10 11 10 8 6 4 4 3 1 2 5 5 4 6 4 4 5 5 5 4 3 4 4 4 4 5 6 6
10 13 15 14 15 12 13 11 13 17 9 12 10 9 6 7 7 7 7 9 9 9 12 15 16 12 8 10 10 11 9 10 9 8 7 8 10 10 10 11 10 9 10 10 11 12 12 11 11 12 13 12 12 11 11 11 11 10 10 11 12 12 9 9 7 5 4 2 3 4 3 4 5 5 6 6 6 5 5 4 4 5 5 5 6 7
9 10 10 11 12 11 10 10 10 13 9 12 9 10 9 5 5 7 8 6 8 10 9 12 15 12 9 10 8 8 9 9 9 9 8 9 10 9 9 9 9 9 9 10 11 12 12 12 12 12 13 13 12 12 11 10 10 10 10 10 10 10 10 9 8 8 7 6 5 5 4 4 5 6 6 7 7 6 5 5 6 5 6 6 7 7
13 14 12 12 8 11 13 11 9 9 10 12 12 12 13 9 7 10 10 11 10 9 10 10 11 10 4 6 11 12 11 10 10 8 8 9 9 9 9 9 9 9 10 11 11 11 12 12 13 13 12 12 12 12 12 11 10 9 9 10 10 10 10 9 10 10 10 10 9 9 7 6 5 7 7 7 7 6 5 5 7 7 6 6 6 6
9 12 16 13 13 13 13 14 12 13 13 14 13 14 14 13 12 11 12 7 11 6 6 7 11 4 8 8 11 12 12 12 13 11 9 9 9 10 9 9 9 10 10 11 11 11 11 11 10 11 11 11 10 12 11 11 10 10 9 10 10 10 10 9 9 8 8 8 8 8 7 7 6 7 8 6 6 7 6 6 7 8 7 6 7 7
11 13 14 16 12 15 15 13 11 10 13 13 12 13 13 11 11 11 12 12 13 9 8 5 11 8 12 8 12 12 11 12 12 11 10 9 8 8 9 9 10 10 11 11 11 11 11 12 11 10 10 10 10 11 11 11 11 10 10 10 11 10 11 10 10 9 8 7 8 9 8 8 7 8 7 6 6 6 7 7 7 8 7 7 7 7
16 8 12 16 9 17 17 16 12 14 12 13 11 10 12 13 8 12 3 9 12 9 9 4 1 5 4 13 12 11 11 11 11 11 9 9 8 8 8 9 9 9 10 10 10 11 11 11 10 10 10 9 9 10 10 11 10 11 11 11 11 11 11 11 11 9 8 7 7 8 8 9 9 8 8 7 5 6 7 8 8 8 7 7 7 8
11 10 16 19 10 16 19 17 14 14 11 12 12 14 12 9 12 4 2 6 4 6 6 5 7 7 9 9 11 11 12 12 9 9 8 8 7 8 8 9 9 9 9 10 10 10 11 11 11 10 10 10 11 11 11 11 10 11 10 11 12 12 11 11 11 10 9 9 8 7 8 9 9 10 9 9 8 8 8 8 7 8 9 8 7 8
8 9 13 15 14 12 17 16 14 17 11 10 13 13 6 5 5 8 7 2 7 11 5 8 12 11 12 6 11 12 11 11 9 9 9 9 8 9 8 8 7 8 9 10 10 10 10 10 11 10 10 11 11 11 11 11 11 10 10 12 12 13 14 13 12 12 10 10 9 8 8 9 9 9 8 8 10 10 8 7 8 8 9 9 8 9
8 10 11 17 16 12 7 14 14 11 8 12 13 11 11 10 6 10 6 12 12 10 5 9 12 10 12 8 13 14 13 12 11 10 9 9 8 8 7 7 8 8 8 9 10 10 10 10 11 11 11 11 11 11 11 11 10 11 11 11 11 12 12 12 11 11 10 10 9 8 9 9 8 8 8 7 7 8 10 9 9 9 9 8 9 9
9 7 10 9 13 14 12 12 12 13 10 8 12 11 14 7 11 7 6 5 10 9 6 9 10 6 8 8 16 15 14 14 12 10 8 8 8 7 7 7 8 8 9 9 9 9 10 10 10 11 11 11 11 10 10 11 9 11 11 12 12 12 12 12 12 11 11 10 9 9 9 9 8 8 7 7 7 8 9 9 9 9 10 8 7 10
8 5 6 11 8 13 13 11 13 13 14 13 11 13 11 7 4 8 6 9 10 7 8 7 8 7 5 8 14 16 15 13 13 12 9 8 8 8 8 8 8 9 9 9 8 8 9 9 9 10 10 9 9 10 10 9 11 11 11 12 12 13 13 12 12 11 10 10 10 11 10 10 10 9 8 8 7 8 9 8 8 8 8 7 8 10
5 8 7 11 12 13 12 11 3 12 16 13 12 13 14 13 11 14 9 3 6 8 8 9 7 8 5 3 6 15 10 11 14 14 11 10 9 9 9 9 9 8 9 8 7 8 8 10 10 9 9 9 9 10 10 10 10 11 12 12 12 12 13 13 12 12 11 10 10 11 12 11 10 9 9 9 8 8 9 9 7 5 8 10 9 9
4 8 8 10 13 13 7 5 1 2 2 6 13 12 15 10 10 11 9 10 7 6 2 7 5 4 5 7 9 10 10 12 13 13 12 10 10 9 9 10 10 9 8 8 8 8 8 9 9 9 10 10 11 11 11 10 10 11 12 13 12 12 14 14 13 12 12 12 12 13 11 11 10 10 11 10 9 8 8 8 9 8 7 7 8 8
2 6 10 9 7 8 7 4 3 1 5 6 5 7 15 16 13 11 9 10 9 7 8 5 5 5 5 7 10 11 11 11 10 12 12 10 9 9 10 10 9 9 8 8 8 8 8 9 10 10 10 11 11 11 11 11 12 12 12 13 12 13 15 14 13 13 14 14 14 14 13 12 12 12 11 11 9 10 10 9 8 9 9 8 7 8
5 5 9 8 9 6 5 7 5 6 8 9 9 3 2 1 6 4 2 9 7 10 10 8 8 5 7 7 9 11 12 12 12 11 10 11 9 9 10 9 8 8 8 9 9 9 10 10 11 10 10 10 10 10 10 11 11 11 11 11 12 12 13 13 13 14 14 15 16 15 14 14 13 12 12 12 11 12 11 10 9 8 9 8 8 9
3 1 4 14 15 16 15 14 14 11 12 5 3 5 2 7 13 12 8 7 5 7 6 8 4 7 10 10 11 12 12 12 11 11 10 9 9 10 9 9 8 8 8 9 9 10 10 10 10 10 11 10 10 10 10 11 11 11 11 12 12 12 12 12 12 12 13 14 14 14 15 15 14 14 13 12 11 11 11 11 10 9 8 9 10 10
3 3 7 3 8 9 4 3 4 2 9 9 5 5 4 2 3 4 6 7 8 9 9 3 11 14 13 12 12 12 11 12 12 10 10 9 10 10 10 9 7 7 8 9 9 8 9 10 11 10 10 9 10 11 10 9 10 10 11 12 11 11 11 11 11 12 12 13 13 13 14 14 14 13 12 12 12 11 10 10 10 10 9 8 10 10
4 5 7 9 13 8 5 5 3 3 9 8 9 6 4 2 1 5 9 5 6 7 6 8 18 18 14 13 12 12 11 11 10 10 10 9 9 10 10 10 9 9 9 8 8 9 10 9 9 9 9 10 10 10 10 9 9 10 11 12 12 11 10 9 10 11 12 12 13 13 14 13 13 13 13 12 11 11 12 10 9 8 8 9 9 9
6 3 4 9 11 9 8 8 8 11 12 10 10 8 7 4 2 4 5 4 2 4 3 12 14 17 14 12 12 11 11 10 10 10 9 10 11 11 10 9 8 8 8 8 8 9 9 9 8 9 9 9 10 11 11 10 10 10 10 10 11 11 12 11 11 12 12 13 13 14 14 13 13 13 13 13 12 11 12 13 13 12 9 8 8 8
5 5 8 9 13 9 8 9 9 14 13 14 12 12 10 11 12 12 11 9 9 12 14 16 18 17 12 12 12 12 11 11 10 9 9 11 11 10 9 10 9 9 8 8 8 8 8 8 8 9 9 10 11 11 11 11 11 11 11 11 11 11 10 10 12 12 13 14 14 14 14 13 13 14 13 13 13 12 12 12 11 11 12 12 11 11
0 5 11 10 10 10 8 9 9 11 14 16 13 12 11 11 13 12 12 14 18 17 16 20 20 14 9 12 13 11 11 10 10 11 11 10 9 8 9 10 9 9 8 7 8 8 7 7 8 9 10 11 11 11 11 11 11 11 11 12 12 12 11 11 12 12 12 13 14 14 14 13 14 14 14 14 13 13 13 13 11 11 10 10 10 11
5 7 9 5 6 6 6 9 10 14 17 18 15 13 10 7 8 7 4 3 3 12 15 15 12 9 10 11 13 12 11 11 12 11 10 9 8 8 11 10 8 8 7 7 8 7 7 7 9 10 10 11 11 11 11 11 11 10 11 12 12 12 12 12 12 13 13 13 14 14 15 14 15 14 14 15 15 14 13 12 12 12 12 11 11 9
6 11 8 5 5 5 8 9 10 9 10 8 9 7 9 11 11 11 12 10 12 14 10 5 7 11 12 12 14 12 12 12 12 11 10 9 8 9 10 9 8 8 7 7 7 7 7 8 9 9 10 10 10 10 10 10 10 11 11 12 12 11 12 13 13 12 13 14 14 15 15 15 15 15 14 15 15 14 14 14 13 13 13 13 12 10
10 12 7 7 3 7 10 7 4 2 8 4 3 4 3 5 8 12 11 10 8 3 6 10 15 14 13 12 14 13 12 10 11 9 8 7 8 9 9 8 8 6 6 7 7 7 7 7 7 8 9 9 10 10 10 9 10 10 10 11 11 12 13 13 13 13 13 14 14 14 14 15 15 15 14 14 14 14 14 14 14 13 12 12 12 11
11 8 5 4 6 9 9 7 4 8 4 1 1 3 5 10 15 17 14 12 12 14 18 18 16 14 13 12 13 14 14 13 12 11 9 8 8 8 8 8 7 6 6 6 6 6 7 7 8 8 9 9 9 9 9 10 10 10 10 11 11 12 13 13 13 13 14 14 14 14 15 15 15 15 14 14 14 14 14 14 14 13 12 11 11 11
5 6 6 4 6 6 6 6 8 4 2 3 4 6 9 13 15 16 16 13 10 12 15 17 15 15 15 16 14 13 14 14 12 11 9 8 7 7 7 7 7 6 7 6 6 7 7 8 8 8 8 8 9 9 9 10 10 10 11 11 11 11 12 12 13 14 14 14 14 15 15 15 15 15 14 14 14 14 14 14 14 13 12 11 10 9
10 6 5 7 1 6 4 5 6 5 4 3 4 4 8 6 5 2 6 6 6 8 12 16 16 15 15 15 15 13 13 12 12 10 8 8 8 8 8 7 6 7 7 7 7 8 8 8 8 8 7 8 8 8 8 9 9 9 10 11 11 12 13 13 14 14 14 14 15 14 14 14 14 14 14 13 14 14 14 14 13 13 11 11 10 10
1 4 5 7 1 3 8 8 5 4 5 6 5 7 2 1 2 6 11 6 6 8 11 15 17 16 16 15 14 14 12 9 8 6 5 6 7 8 8 8 8 8 8 8 8 9 9 8 8 8 8 9 9 9 9 9 10 10 10 11 12 12 12 13 14 14 14 14 14 14 14 14 14 13 13 13 14 13 13 12 11 12 11 11 10 11
7 5 2 4 6 5 5 6 5 7 3 4 11 9 6 4 4 6 5 6 5 9 10 13 15 15 15 15 14 10 7 5 6 5 5 7 7 7 8 8 8 8 8 8 9 9 9 8 8 9 9 10 11 10 10 10 11 11 12 12 12 12 13 13 14 14 14 14 14 13 13 13 13 13 13 13 13 12 13 12 10 10 10 10 10 10
6 2 3 5 5 5 5 5 4 3 3 5 10 8 6 4 4 4 6 6 10 11 12 14 15 15 13 11 9 6 4 8 9 7 8 8 8 8 8 9 8 8 8 8 7 7 8 8 9 10 10 11 11 10 10 10 11 12 12 12 12 13 14 14 13 13 13 13 13 13 13 12 13 13 13 13 12 12 12 11 10 11 10 9 9 10
3 3 0 5 5 4 4 5 4 4 1 5 9 8 5 3 3 5 3 7 14 13 13 14 14 12 11 10 6 5 6 8 12 13 11 10 9 9 8 8 8 8 8 8 8 7 8 8 9 10 11 10 10 10 10 10 11 12 12 12 13 14 14 13 13 13 13 13 12 13 13 12 13 13 12 12 12 11 12 10 9 10 9 9 9 10
4 2 2 2 5 6 4 4 4 6 4 7 6 5 5 4 3 1 6 13 17 16 14 14 14 11 10 10 9 10 13 15 15 13 12 10 10 9 9 9 9 9 9 9 7 7 8 8 10 10 10 10 10 10 10 11 12 12 12 12 14 13 12 12 13 12 12 13 13 12 12 12 12 11 10 11 11 11 11 11 10 8 9 9 9 11
2 1 5 4 2 2 3 5 5 4 4 8 9 6 1 4 4 9 14 15 15 16 16 13 11 11 12 13 14 15 15 15 14 13 12 11 10 10 9 9 9 8 8 8 9 8 7 8 9 10 10 10 10 10 10 11 12 12 12 13 13 12 12 12 12 13 13 12 12 11 11 10 11 9 8 9 11 12 11 10 11 12 10 11 11 11
5 2 4 2 3 3 5 3 2 4 11 8 7 3 5 7 10 13 15 15 12 12 12 11 10 11 12 14 15 15 14 15 13 12 12 11 11 10 9 8 8 8 7 7 7 7 7 8 8 9 10 9 10 10 10 11 11 12 12 13 11 11 11 11 12 13 13 13 12 12 12 11 10 9 10 12 11 12 12 11 11 11 11 11 11 11
7 4 6 2 5 3 3 5 5 4 9 7 6 9 10 11 11 12 13 15 14 11 12 11 13 14 14 16 16 15 14 13 14 13 12 11 10 10 9 8 7 7 7 7 7 7 7 8 8 8 9 9 10 9 10 10 11 12 13 12 11 11 11 11 11 12 13 13 13 13 12 11 11 11 13 12 12 12 12 12 12 10 11 11 10 10
5 6 7 10 7 11 12 9 7 8 10 11 9 10 12 12 11 11 14 14 12 13 12 13 15 16 16 16 16 15 14 14 14 13 12 11 10 9 8 8 7 7 7 7 7 6 6 7 8 8 9 10 10 9 9 10 10 12 12 11 11 11 11 11 11 11 12 12 12 13 14 13 12 13 14 13 12 12 12 12 12 11 10 10 11 11
4 1 3 6 12 5 5 4 9 10 10 11 12 11 11 11 11 12 12 13 13 13 15 15 15 16 16 15 15 16 15 14 13 12 11 10 10 9 9 8 8 7 7 7 6 5 6 7 8 8 9 9 9 9 9 10 9 10 10 11 11 11 11 11 11 11 11 11 11 11 12 13 12 12 13 14 12 12 11 11 12 12 12 11 10 10
5 4 8 9 6 2 7 8 9 10 10 10 10 11 12 12 13 13 13 14 15 15 16 16 16 16 15 15 15 15 15 14 13 12 10 9 9 9 8 8 8 7 7 6 6 6 7 8 8 9 9 8 8 9 9 10 10 10 10 10 11 11 11 10 10 10 10 11 11 10 11 11 10 11 11 12 11 11 12 11 11 12 13 12 11 10
7 8 5 6 7 10 11 10 11 12 11 9 10 10 10 12 14 16 16 17 18 19 18 15 14 15 15 15 15 14 14 12 11 11 10 9 8 7 7 6 6 6 6 6 6 6 7 7 8 9 9 9 8 9 9 10 10 10 11 11 11 11 10 9 10 10 11 10 10 10 10 10 10 10 10 10 10 9 10 11 12 11 11 9 7 8
9 6 10 11 12 9 8 11 15 10 8 8 10 12 13 14 17 19 18 19 19 19 17 18 16 15 14 13 12 12 13 11 10 10 9 8 8 7 7 6 6 6 5 4 5 5 6 7 8 8 8 8 8 8 9 10 10 10 10 10 11 11 11 11 10 11 10 10 10 10 9 9 10 10 10 10 10 8 6 8 11 9 9 8 9 11
3 10 9 7 7 9 11 16 9 8 13 11 13 14 15 16 18 20 19 19 18 18 18 18 17 15 14 13 12 12 12 11 10 9 8 8 7 6 5 5 6 5 5 5 5 5 6 7 7 8 8 8 8 8 8 9 10 10 10 11 11 11 11 11 10 10 10 10 9 7 9 9 9 9 9 9 8 9 7 5 7 11 11 9 10 11
Wind_Direction
169 197 196 205 202 196 199 208 214 238 212 170 187 197 179 189 181 132 124 131 193 187 177 116 105 105 86 69 65 70 67 59 54 60 76 131 161 165 161 157 151 94 64 49 49 43 48 55 52 59 65 82 107 116 157 183 180 175 178 169 196 147 176 208 210 195 196 212 225 237 242 249 244 239 231 221 223 220 216 227 233 245 226 241 253 272
190 211 207 205 205 195 197 200 211 206 210 188 190 198 184 194 168 165 140 163 172 210 119 121 108 89 75 75 66 74 67 57 53 68 78 102 121 141 126 104 82 74 65 64 64 72 78 86 83 77 66 53 57 51 343 314 276 138 184 141 146 160 177 193 198 201 205 218 230 236 244 249 258 255 244 238 224 220 221 213 222 240 246 262 272 262
203 214 206 202 204 199 194 197 196 193 195 199 203 195 181 191 131 110 130 159 171 201 135 146 131 101 84 76 76 71 74 72 72 67 65 73 92 102 95 75 70 69 68 67 66 74 78 75 62 53 42 37 40 44 33 355 341 13 355 226 135 180 205 212 220 227 231 227 233 233 240 239 246 248 263 272 269 251 231 216 217 219 223 234 256 272
202 211 209 196 193 184 183 192 199 207 214 204 201 196 192 163 158 158 138 158 158 213 148 147 135 111 104 94 85 78 79 82 83 81 78 74 86 80 81 87 82 76 73 66 62 62 63 64 65 62 50 46 41 49 60 35 14 10 351 337 321 238 224 229 223 248 246 248 248 241 256 265 261 267 257 257 271 257 249 241 230 212 222 236 252 261
206 189 195 170 177 188 186 188 198 202 203 211 214 193 201 169 186 175 145 132 134 125 158 147 141 128 116 135 117 93 87 92 88 91 89 94 96 96 86 74 68 70 69 71 69 66 63 58 52 50 38 30 25 29 20 16 23 12 14 5 8 359 338 339 285 254 256 223 234 236 246 262 273 261 254 253 259 262 255 243 233 234 230 216 217 242
210 202 170 184 193 196 191 188 198 198 206 197 215 214 193 179 170 109 135 143 158 156 180 180 163 173 123 103 105 121 108 84 86 86 76 75 76 70 67 71 73 68 62 64 64 64 63 59 52 45 42 36 31 30 22 22 24 19 16 19 25 29 33 13 198 229 246 228 218 208 214 229 246 258 240 244 253 259 250 249 234 218 219 213 213 213
214 161 175 187 191 192 196 199 193 201 208 198 193 218 193 187 178 159 163 185 176 188 179 226 233 164 157 137 128 128 111 103 91 81 64 54 59 65 64 59 56 59 64 61 58 53 51 49 47 43 36 33 32 27 24 25 24 22 23 22 22 40 59 54 291 233 230 236 233 242 244 244 256 272 268 256 226 242 280 303 281 214 169 207 225 232
206 165 188 190 189 195 196 203 193 200 210 208 168 191 204 199 181 181 188 200 184 86 147 206 245 196 172 148 132 133 124 119 99 87 73 65 59 62 62 59 57 56 58 61 56 52 49 46 43 38 29 26 23 19 21 26 24 26 23 19 27 38 39 43 30 321 283 268 229 227 235 252 269 281 287 285 266 226 208 209 187 197 181 218 229 228
178 178 188 187 193 196 203 204 177 198 216 182 143 188 200 204 200 193 205 205 203 176 183 202 220 213 184 137 168 157 145 124 105 101 77 71 70 63 60 58 56 57 57 56 54 50 46 43 41 38 35 28 25 22 20 20 27 24 23 29 36 42 40 35 45 345 238 247 250 237 248 264 269 276 276 261 254 254 227 258 216 215 210 217 223 217
185 188 187 193 194 200 199 200 179 190 211 111 142 181 207 222 234 224 212 216 174 213 204 189 196 216 170 153 166 183 162 145 123 117 86 76 68 61 56 56 56 56 56 56 55 52 48 41 40 40 40 36 27 21 25 26 26 22 15 23 31 32 35 30 33 21 21 264 260 250 252 269 280 257 242 249 250 241 241 239 236 234 228 231 238 239
182 188 194 200 200 201 197 186 179 186 209 126 150 153 171 205 218 225 237 231 203 208 223 183 189 230 191 169 167 178 159 130 125 112 98 72 67 63 57 54 52 51 54 53 53 51 49 43 40 38 41 35 31 29 28 28 28 28 23 12 13 16 12 19 11 0 351 307 282 282 276 271 280 268 262 257 255 251 240 240 239 237 241 229 229 239
166 168 197 205 207 209 187 164 181 192 164 169 177 183 161 185 208 212 211 223 225 212 208 160 187 211 216 164 153 103 102 128 136 115 97 83 69 60 55 56 54 53 55 55 51 46 43 42 38 35 33 29 27 27 27 26 24 26 27 22 15 12 3 1 1 353 352 335 323 314 291 247 244 249 251 258 265 258 236 227 242 236 233 230 228 228
198 192 191 180 201 206 177 185 161 173 183 202 192 185 186 178 190 202 202 202 209 219 147 164 169 200 218 129 139 134 117 102 94 96 90 83 77 71 64 58 56 53 54 53 48 43 38 34 30 26 24 23 21 21 20 19 17 18 20 18 12 7 359 359 359 356 356 351 349 337 323 305 276 259 249 254 254 260 245 230 237 234 227 233 241 237
191 197 190 190 190 204 207 200 170 192 193 202 200 192 187 183 187 206 199 204 205 113 118 149 189 206 112 107 118 119 110 106 105 95 93 84 77 70 66 61 56 52 51 50 48 42 38 35 31 27 22 20 17 15 14 12 7 7 7 10 3 359 356 357 359 1 360 353 341 331 325 315 295 278 266 255 258 255 254 240 234 231 230 235 238 243
186 187 193 191 199 185 209 216 179 197 186 205 206 203 206 197 191 195 199 194 199 170 133 137 190 172 175 147 108 113 116 113 104 100 94 89 82 76 69 66 57 52 48 48 45 41 37 34 31 26 20 17 15 11 9 5 360 357 357 359 356 353 354 353 355 352 360 359 345 338 331 312 304 298 281 270 265 271 267 251 242 235 228 231 228 235
202 200 176 191 201 179 205 213 199 190 193 202 204 211 216 220 179 211 208 212 200 136 141 148 131 51 107 110 112 125 119 108 106 98 93 83 85 79 66 60 55 50 49 48 47 42 38 36 31 26 20 17 13 10 8 3 357 354 353 353 354 353 354 357 352 350 343 348 344 340 332 327 314 298 297 295 282 270 266 263 257 252 243 234 229 229
190 210 161 177 197 184 197 197 199 192 199 182 204 207 208 234 214 105 114 37 68 179 168 137 131 111 117 110 130 139 123 113 107 107 97 89 81 74 61 54 47 45 44 42 41 37 35 32 29 26 21 17 16 14 10 5 359 356 354 353 352 353 352 356 352 347 342 337 335 340 339 332 325 318 308 302 293 280 270 263 261 256 251 240 225 230
182 186 152 175 181 193 194 191 194 192 216 162 206 197 144 349 243 174 187 137 194 206 151 194 160 151 164 160 160 154 138 131 127 114 104 98 88 76 65 55 51 50 50 49 46 41 36 32 28 25 22 20 16 10 6 7 4 3 358 358 356 355 354 353 351 347 345 340 334 334 340 340 330 322 311 299 295 291 279 269 260 258 254 243 232 230
209 184 171 190 188 168 172 190 192 201 251 208 203 175 191 175 197 198 216 185 193 203 153 188 175 166 194 146 168 163 153 153 144 129 120 111 100 96 87 77 69 62 55 47 41 37 32 29 28 25 18 14 10 9 9 7 6 8 5 2 2 356 353 350 348 344 341 345 340 336 334 329 323 320 317 303 285 282 280 269 265 262 258 254 247 241
211 225 153 179 199 161 184 190 192 187 200 256 216 177 204 215 206 186 205 195 206 198 143 175 187 195 187 145 175 162 155 161 145 125 118 111 108 99 89 75 61 54 50 44 41 36 33 29 28 22 16 14 11 9 7 9 7 12 9 3 359 354 352 351 352 348 344 341 338 337 333 326 319 312 310 314 303 278 268 275 269 270 268 262 266 257
199 254 192 162 169 164 192 193 198 184 186 187 202 198 186 215 197 184 185 222 206 196 193 167 196 195 138 147 173 161 157 161 143 135 131 116 103 90 79 71 62 55 49 47 38 32 32 24 16 19 16 12 17 17 9 11 5 13 7 4 3 357 352 353 348 348 347 343 341 336 333 327 318 310 304 305 309 303 291 277 280 282 284 297 273 256
209 197 201 149 183 191 189 181 274 196 185 187 199 201 196 189 182 184 179 184 228 193 198 188 199 138 75 50 134 149 155 143 129 127 125 114 106 93 82 71 66 61 55 51 44 38 30 15 13 20 22 20 20 16 16 16 10 9 10 6 357 3 353 351 349 348 344 345 342 340 334 331 320 319 317 309 307 305 302 294 281 274 273 262 245 245
257 201 192 178 183 193 109 53 27 359 306 220 201 198 192 193 198 195 192 182 198 218 196 199 210 126 58 88 99 103 110 124 124 122 118 113 104 101 88 80 72 65 61 53 47 42 36 35 33 27 26 25 20 17 13 9 9 7 6 4 0 358 354 352 347 346 342 339 340 340 335 332 330 327 322 320 313 309 303 303 293 280 280 272 266 265
206 198 178 171 131 91 96 97 108 57 203 189 201 217 189 200 199 203 209 158 194 156 206 184 216 121 107 92 99 107 104 108 110 112 116 109 106 94 86 81 76 71 63 58 53 47 40 34 31 28 23 19 17 12 9 6 8 9 8 2 358 357 355 354 351 347 345 343 341 339 337 338 335 332 330 322 314 308 301 290 289 290 285 283 279 268
194 183 186 165 173 163 164 153 157 175 204 213 191 159 316 201 203 191 122 170 202 189 206 192 202 153 131 119 113 111 111 109 111 109 110 112 109 100 91 82 74 69 66 59 55 49 43 39 32 26 22 18 14 10 9 7 7 7 6 2 2 359 357 353 351 348 345 342 340 341 341 340 337 332 330 325 320 313 302 295 287 276 273 272 260 256
228 106 230 187 184 185 181 187 185 177 188 136 82 137 20 226 189 186 193 194 209 175 200 220 102 87 128 130 123 116 112 108 104 104 102 104 107 104 96 84 74 71 65 60 53 48 44 38 32 29 23 20 16 14 11 8 8 10 10 10 2 360 355 354 351 350 347 345 342 341 343 341 339 336 331 327 321 316 312 302 290 282 280 273 268 262
94 69 31 350 216 191 163 107 21 136 149 176 129 149 149 56 27 240 214 195 213 160 201 215 129 140 144 145 136 129 121 119 117 116 115 112 106 98 92 87 81 73 65 56 53 50 49 39 32 28 29 21 13 9 6 1 0 358 0 3 360 358 355 352 352 351 350 348 346 344 344 343 341 337 332 331 325 318 309 303 299 294 284 278 273 271
131 84 32 56 70 70 68 61 71 146 126 106 140 118 113 78 10 222 206 231 146 167 186 90 133 138 154 145 139 129 121 115 114 116 115 113 106 100 97 93 84 78 74 68 60 55 50 43 37 30 22 15 8 7 6 2 2 359 5 5 5 1 0 354 355 354 354 352 351 350 346 345 341 338 337 334 330 328 323 315 305 298 294 289 285 278
127 102 92 89 79 81 62 80 90 90 84 85 77 86 78 78 137 101 72 31 278 234 196 128 131 128 138 138 130 123 123 115 113 110 108 110 106 103 102 99 88 80 72 60 58 53 47 47 34 19 14 12 10 9 8 5 3 3 3 4 7 8 5 2 3 3 2 358 357 353 349 345 345 341 340 341 339 339 339 335 334 328 315 299 289 286
104 82 128 110 104 96 96 91 99 99 101 81 67 65 67 72 70 80 74 63 79 85 104 118 112 114 120 116 110 108 109 111 110 111 107 102 102 100 93 85 79 73 66 63 58 57 55 45 40 22 13 12 10 7 7 4 2 1 359 359 360 360 356 2 4 5 5 2 358 354 352 349 348 347 347 348 347 348 344 343 343 343 345 344 336 321
282 129 149 129 102 90 107 108 101 105 97 85 66 63 69 73 73 69 79 79 85 87 98 106 107 98 92 109 109 111 111 114 110 101 96 96 97 92 89 79 70 65 61 58 57 58 49 43 34 30 23 16 9 8 7 3 359 360 359 358 356 356 355 359 4 1 10 3 358 356 355 353 352 352 354 352 351 350 351 349 344 342 341 340 339 330
116 138 177 168 114 101 118 114 111 103 94 87 69 55 51 55 64 40 50 9 100 130 127 119 111 119 124 118 114 115 115 110 105 97 94 93 92 89 81 78 70 62 58 52 51 53 50 35 34 24 19 17 15 9 7 1 359 360 358 357 355 357 356 3 5 2 5 2 0 358 359 358 355 356 357 358 357 355 352 353 350 348 342 339 340 337
134 145 173 190 112 130 138 136 128 134 124 88 40 23 43 85 91 85 67 74 101 128 137 164 120 129 131 129 118 112 107 105 98 94 100 98 86 80 82 80 77 72 63 62 52 48 39 33 29 22 17 17 13 10 5 1 360 359 358 357 358 359 4 8 7 2 2 6 3 1 359 359 359 359 358 0 2 0 0 358 357 353 346 343 343 342
137 147 159 170 123 146 163 163 200 200 174 105 26 327 316 78 106 93 79 73 55 25 61 90 122 127 128 126 118 117 106 100 99 92 93 103 101 91 86 80 75 68 60 52 48 41 36 30 24 19 19 15 14 13 11 9 5 4 1 1 3 5 8 8 8 8 6 5 5 1 360 359 359 2 3 1 3 4 4 3 360 355 350 345 347 349
148 150 126 130 126 146 158 177 181 190 95 33 259 78 81 96 100 93 78 69 83 97 106 108 118 119 117 112 110 110 108 104 96 95 91 86 87 88 83 78 69 64 62 56 48 43 39 34 24 21 16 13 12 11 10 11 7 8 10 9 10 9 7 5 7 10 8 7 6 3 1 360 0 3 5 5 6 6 8 6 2 359 355 353 354 355
158 140 117 91 111 114 157 186 183 103 85 110 91 102 111 115 115 97 71 55 84 109 114 113 112 114 115 114 110 109 107 103 94 82 78 76 76 80 83 76 69 63 64 59 55 45 42 35 29 22 16 12 7 9 10 7 3 7 9 7 10 10 11 14 12 11 9 8 8 6 4 2 2 4 6 8 9 11 10 9 8 4 1 360 3 4
161 131 129 111 162 157 103 65 68 131 129 114 136 162 163 137 162 107 109 69 69 111 120 119 119 120 120 119 121 122 117 106 91 79 72 79 80 79 79 78 75 75 70 65 58 56 50 43 38 31 25 22 17 11 10 1 2 5 8 8 9 8 9 6 8 10 10 10 10 8 8 6 6 6 8 10 11 12 12 11 11 11 7 6 9 11
184 185 136 124 35 142 136 120 126 165 205 189 191 144 182 114 65 105 108 95 86 109 124 129 128 130 128 129 133 140 143 110 86 79 87 95 95 95 90 85 80 74 71 70 68 63 56 49 44 42 34 30 28 22 17 10 9 8 12 12 11 11 11 10 11 10 10 11 11 10 9 10 10 10 10 13 14 12 12 14 15 14 12 15 16 19
76 77 135 151 143 164 164 154 157 176 90 93 156 159 145 161 158 161 138 102 128 134 134 134 131 134 137 140 144 156 176 127 111 127 132 117 106 100 94 87 81 78 72 67 61 56 51 50 45 41 40 38 35 31 28 27 25 23 24 22 20 19 17 15 12 13 12 12 13 12 11 11 13 14 15 17 17 16 15 15 13 9 13 15 14 15
91 109 132 131 149 167 175 176 141 48 110 158 142 148 150 137 181 202 202 163 151 148 142 140 136 139 143 146 153 171 172 139 145 145 142 126 115 103 98 96 87 78 76 73 67 68 64 53 51 45 42 38 36 35 35 35 35 34 30 28 25 23 21 18 16 14 15 16 17 16 15 17 18 21 22 23 24 24 21 17 16 14 13 20 16 14
93 83 14 148 152 127 137 101 94 112 37 131 139 142 127 180 199 210 212 118 148 145 144 139 136 136 137 141 150 94 45 99 124 131 131 126 119 112 104 98 92 81 77 71 66 64 59 55 48 47 43 40 36 35 35 36 36 36 33 30 27 26 23 19 19 19 20 22 22 22 23 23 24 24 24 24 26 28 31 28 21 22 21 20 19 19
82 100 59 115 146 169 162 151 106 83 128 153 119 163 139 188 197 133 85 132 135 137 136 135 131 130 128 122 113 108 109 113 121 128 129 125 118 117 117 111 99 88 81 75 61 54 61 57 54 49 46 41 37 36 34 34 35 33 31 29 28 25 22 22 22 23 24 27 30 27 24 21 18 19 17 15 15 19 22 27 28 21 24 31 28 24
39 224 147 128 54 81 164 122 158 164 153 184 145 157 160 278 78 114 125 125 128 130 133 129 123 119 120 113 112 114 118 121 124 125 124 126 125 120 113 104 94 88 79 72 68 58 53 58 54 49 46 42 38 38 37 37 35 33 31 30 27 25 24 24 24 27 30 28 31 34 26 18 14 11 10 10 13 19 22 21 22 24 22 24 29 30
341 229 121 78 333 178 160 153 106 47 130 156 184 146 105 72 127 131 131 124 127 132 131 128 119 121 120 119 121 119 120 121 121 124 124 121 117 114 111 105 97 89 83 74 66 61 57 57 52 49 43 40 39 37 39 35 35 32 30 29 23 23 26 27 27 27 32 35 32 30 31 27 19 13 14 22 20 21 25 23 24 26 23 22 25 30
13 13 344 130 48 4 40 81 110 109 105 95 82 94 107 118 126 132 129 133 137 137 135 125 125 125 123 123 123 124 123 127 126 126 122 121 122 119 114 106 95 90 83 75 65 59 60 54 51 49 45 40 37 36 34 33 32 30 29 26 20 22 24 26 29 27 28 32 35 34 32 31 31 24 23 22 23 25 24 22 17 19 21 25 23 22
89 89 94 81 89 97 67 76 98 98 95 92 86 98 112 115 113 123 132 134 133 131 133 128 130 129 129 131 128 125 124 127 124 123 124 125 122 118 115 109 101 90 82 76 71 56 56 62 58 52 47 42 37 37 33 30 27 28 27 23 21 22 25 23 29 32 28 30 30 30 32 31 30 33 29 26 25 26 26 28 27 19 13 16 24 23
110 141 181 116 148 149 79 69 86 94 104 104 105 102 102 114 121 125 124 124 125 124 123 128 130 133 132 131 125 124 125 127 124 125 124 123 119 115 109 103 94 86 80 76 64 61 61 56 54 51 48 45 39 36 34 30 29 28 23 22 21 23 28 27 25 33 32 30 28 27 28 33 27 32 35 33 31 31 31 31 32 30 26 18 13 22
121 152 110 121 117 100 127 116 105 103 108 117 119 120 117 117 117 116 118 119 123 124 124 126 128 124 129 124 125 126 128 130 128 125 122 119 116 113 110 106 107 103 92 74 67 67 66 56 56 50 46 45 40 39 35 32 28 29 27 23 23 24 27 30 27 28 32 32 34 31 27 31 24 23 36 38 38 33 33 33 35 38 34 25 16 13
122 172 135 141 105 93 97 111 117 101 92 108 118 116 121 123 121 118 119 121 124 123 123 123 127 129 128 128 129 125 120 119 118 120 120 121 120 116 111 110 99 90 83 85 77 63 60 56 53 48 48 46 41 38 36 34 31 30 31 24 26 25 28 29 32 33 32 32 31 34 34 33 33 31 30 37 45 56 42 36 33 38 44 38 24 20
156 140 121 120 122 148 160 164 151 133 139 126 125 127 129 130 126 122 124 126 125 123 124 126 123 120 119 119 121 120 117 115 115 114 110 106 104 106 114 114 109 98 95 85 77 68 73 65 57 53 50 48 46 41 39 34 34 35 30 27 28 26 27 28 32 33 35 35 33 24 29 33 34 35 34 32 34 60 93 63 56 39 32 43 31 34
155 140 158 148 153 165 150 158 172 109 123 127 129 133 133 131 130 128 129 127 124 125 128 127 124 121 119 118 116 117 115 114 112 112 108 105 104 105 99 101 95 90 76 66 77 81 64 58 57 57 52 47 43 45 42 37 33 34 32 30 32 30 31 31 31 33 32 33 35 20 10 27 29 30 34 33 33 33 45 90 96 83 75 66 49 45